Vertical_Velocity
1 0 -0 0 1 1 0 2 2 2 1 0 -0 -1 -2 -2 -2 -2 -2 -2 -2 -1 -1 -1 -1 -1 -1 -2 -2 -3 -3 -3 -3 -3 -2 -2 -2 -2 -2 -2 -1 -1 -0 -1 -1 -1 -1 -1 -1 -0 -0 -0 -0 0 0 0 0 0 -0 -0 -0 -0 -0 -0 -0 -0 -0 -0 -0 -0 -0 -0 0 0 -0 0 0 0 1 0 1 1 1 1 1 0
1 1 -0 -1 -0 0 -0 0 0 0 -1 -2 -2 -2 -2 -2 -2 -2 -1 -0 -0 0 -0 -1 -1 -2 -2 -3 -3 -3 -3 -3 -3 -2 -2 -1 -1 -1 -2 -1 -1 -1 -1 -1 -1 -1 -1 -1 -1 -1 -0 -0 0 0 1 1 1 1 1 0 0 0 -0 -0 -0 -0 -0 -0 -0 -0 -0 -0 -0 -0 -0 -0 0 0 0 1 1 1 1 1 1 1
1 1 -0 -1 -0 1 1 0 -0 -0 1 1 1 1 2 2 1 1 2 1 0 -1 -1 -2 -2 -2 -3 -3 -3 -2 -2 -2 -2 -1 -1 -1 -1 -1 -2 -1 -1 -1 -1 -1 -1 -1 -1 -1 -1 -1 -0 -0 0 0 1 1 1 1 0 0 -0 -0 -0 -0 -1 -1 -1 -0 -0 -0 -0 -0 -0 -0 -0 -0 -0 0 0 0 0 0 0 0 0 1
4 4 3 2 2 3 3 4 4 4 5 5 5 4 4 3 2 1 -0 -1 -1 -2 -2 -2 -2 -2 -3 -3 -3 -2 -2 -2 -2 -2 -1 -1 -1 -1 -1 -1 -1 -1 -1 -1 -1 -1 -1 -1 -1 -1 -1 -1 -0 -0 -0 -0 -0 -0 -1 -1 -1 -1 -1 -1 -1 -1 -1 -0 -0 -0 0 0 0 0 0 0 0 -0 -0 -0 -0 -0 -0 -0 0 0
8 7 6 6 6 6 5 7 7 7 6 5 4 2 0 -0 -1 -1 -1 -1 -1 -1 -2 -2 -2 -2 -2 -2 -3 -3 -3 -3 -3 -2 -2 -1 -1 -1 -1 -1 -1 -1 -1 -1 -1 -1 -1 -1 -2 -2 -2 -1 -1 -1 -1 -1 -1 -1 -1 -1 -1 -1 -1 -1 -1 -1 -1 -0 -0 0 1 1 1 1 1 0 0 0 -0 -0 -0 -0 -0 -0 -0 -0
7 7 7 7 6 6 5 6 5 4 3 2 0 -0 -1 -1 -1 -1 -1 -1 -1 -1 -2 -2 -1 -1 -1 -1 -2 -2 -2 -2 -2 -1 -1 -1 -1 -1 -1 -1 -1 -1 -1 -1 -0 -0 -1 -1 -2 -2 -2 -2 -2 -2 -2 -2 -1 -1 -1 -0 -0 -0 -1 -1 -1 -1 -1 -0 -0 0 1 1 1 1 0 0 0 0 -0 -0 -0 -0 -0 -0 -0 -0
3 4 4 4 3 3 3 3 2 1 -0 -1 -1 -1 -1 -1 -1 -1 -1 -1 -2 -2 -2 -2 -1 -1 -0 -0 -0 -1 -1 -1 -1 -0 -0 -0 -0 -1 -1 -1 -1 -1 -1 -0 0 0 0 -0 -1 -2 -2 -2 -2 -2 -2 -1 -1 -0 0 0 0 -0 -0 -1 -1 -1 -0 -0 -0 -0 -0 -0 -0 -0 -0 -0 -0 -0 -0 0 0 0 0 0 0 0
1 1 2 2 2 2 2 2 1 1 -0 -0 -0 -0 -0 -0 -0 -1 -1 -2 -2 -2 -2 -2 -2 -1 -1 -0 -0 -0 -0 -0 -0 -0 0 -0 -0 -1 -2 -2 -2 -2 -1 -0 1 1 1 0 -1 -1 -2 -2 -2 -2 -1 -1 -0 0 1 1 1 1 0 -0 -0 -0 -1 -1 -1 -1 -1 -1 -1 -1 -1 -1 -1 -0 -0 -0 0 0 0 0 0 0
2 2 3 3 3 3 3 2 1 1 0 0 -0 -0 -0 -1 -1 -2 -2 -2 -2 -2 -2 -2 -2 -2 -2 -2 -1 -0 -0 -0 0 -0 -0 -1 -1 -2 -2 -3 -2 -2 -1 0 1 1 1 0 -0 -0 -1 -1 -1 -1 -1 -0 0 1 2 2 1 1 1 1 0 0 -0 -0 -0 -0 -1 -1 -1 -1 -1 -1 -1 -1 -0 -0 -0 0 1 1 0 0
3 3 3 4 3 2 1 1 1 1 1 1 0 -0 -1 -2 -3 -3 -3 -2 -2 -2 -1 -1 -2 -2 -2 -3 -2 -2 -1 -1 -0 -0 -0 -1 -2 -3 -3 -3 -3 -3 -2 -1 -1 -0 -0 -0 -0 -0 -1 -1 -1 -1 -1 -0 1 1 2 2 2 2 2 2 2 2 2 1 1 1 1 0 -0 -0 -0 -0 -0 -0 -0 -0 -0 0 0 1 1 1
3 3 3 2 1 1 -0 0 0 0 0 -1 -2 -2 -3 -3 -3 -2 -2 -1 -1 -2 -2 -3 -2 -2 -2 -2 -3 -3 -2 -2 -2 -2 -2 -2 -3 -4 -4 -4 -4 -4 -4 -4 -3 -3 -3 -2 -1 -1 -1 -1 -1 -1 -1 -0 0 1 1 1 1 1 2 2 2 2 2 2 2 2 2 1 1 1 0 0 0 0 0 0 0 0 0 1 1 1
3 2 2 1 0 0 -0 -0 -0 -1 -3 -4 -5 -4 -3 -2 -1 -0 0 0 -0 -1 -2 -3 -3 -3 -3 -3 -3 -3 -2 -1 -1 -1 -2 -3 -3 -4 -4 -4 -4 -4 -4 -4 -5 -5 -4 -3 -2 -2 -2 -2 -2 -2 -1 -1 -1 -1 -1 -1 -1 -0 -0 0 1 1 1 2 2 2 2 2 1 1 1 1 1 0 0 0 0 1 1 1 1 1
1 1 0 -0 -1 -1 -2 -3 -4 -5 -5 -4 -3 -2 -1 -0 -0 0 0 -0 -0 -1 -1 -1 -2 -3 -3 -3 -2 -2 -1 -0 0 1 0 -1 -2 -2 -2 -2 -2 -2 -2 -3 -4 -4 -3 -2 -2 -2 -2 -3 -3 -3 -2 -2 -2 -3 -3 -3 -3 -2 -2 -2 -1 -1 -0 -0 0 0 1 1 1 1 1 1 1 1 1 1 1 1 1 1 1 2
-0 -0 -1 -2 -3 -4 -5 -5 -5 -4 -2 -1 -0 0 0 -0 -0 -0 -0 -1 -2 -3 -2 -2 -3 -3 -3 -3 -3 -2 -0 0 1 2 3 2 0 -1 -1 -0 -1 -1 -2 -2 -2 -2 -2 -1 -2 -2 -3 -3 -3 -4 -3 -4 -4 -4 -4 -4 -4 -3 -3 -2 -2 -1 -1 -1 -1 -1 -0 -0 0 0 1 1 1 1 1 1 1 1 1 2 2 2
-1 -2 -2 -3 -4 -4 -3 -2 -1 -0 0 0 -0 -0 -1 -1 -1 -1 -1 -2 -3 -3 -3 -2 -2 -2 -2 -3 -3 -2 -2 -0 1 3 4 4 3 1 -0 -0 -0 -1 -1 -1 -1 -1 -1 -1 -2 -3 -4 -4 -4 -4 -5 -5 -5 -5 -4 -4 -4 -3 -3 -2 -2 -1 -1 -1 -1 -1 -0 -0 0 1 1 1 1 2 1 1 2 2 2 2 2 2
-2 -3 -3 -2 -1 -0 0 1 1 1 -0 -1 -1 -1 -2 -2 -2 -2 -3 -3 -4 -3 -2 -1 0 1 1 -1 -2 -2 -2 -2 -0 1 4 5 4 1 -0 -0 0 -0 0 -0 -0 -1 -1 -2 -3 -4 -4 -4 -4 -5 -5 -6 -5 -5 -4 -4 -3 -3 -2 -2 -2 -1 -1 -1 -1 -1 -0 0 0 1 1 1 1 2 2 2 2 2 2 3 3 2
-2 -1 -0 1 1 1 1 0 -0 -1 -2 -2 -2 -2 -2 -3 -3 -3 -4 -4 -3 -3 -2 -1 -0 1 1 -0 -1 -2 -0 -1 -1 -0 3 5 3 0 -1 -0 -0 0 1 0 -0 -0 -0 -2 -3 -4 -4 -4 -4 -4 -5 -4 -4 -4 -3 -3 -2 -2 -2 -2 -1 -1 -2 -2 -1 -1 -0 -0 -0 -0 -0 0 0 0 1 1 1 1 2 1 1 1
1 2 2 2 1 0 -0 -1 -2 -2 -2 -3 -3 -3 -3 -3 -3 -4 -4 -3 -3 -3 -3 -3 -3 -2 -2 -2 -4 -4 -1 -1 -1 -0 3 4 3 0 -1 -0 0 0 1 0 -0 -0 -0 -2 -3 -4 -4 -3 -3 -3 -3 -2 -2 -2 -1 -1 -1 -1 -1 -1 -1 -1 -2 -2 -1 -1 -1 -1 -1 -1 -1 -1 -1 -0 0 0 0 0 0 0 0 0
2 2 1 -0 -1 -1 -2 -2 -2 -3 -3 -3 -3 -4 -4 -4 -4 -3 -3 -3 -3 -3 -3 -3 -4 -3 -2 -2 -3 -4 -2 -1 -1 -0 2 4 2 -0 -1 1 1 1 1 0 0 -0 -0 -2 -3 -3 -2 -2 -1 -1 -1 -0 -0 0 0 0 0 0 0 0 -0 -0 -0 -0 -0 -0 -0 -1 -1 -1 -1 -1 -0 0 0 0 0 0 0 0 0 0
1 -0 -1 -2 -2 -2 -2 -2 -2 -3 -3 -3 -3 -3 -3 -3 -3 -3 -3 -2 -2 -2 -2 -2 -2 -2 -2 -1 -2 -2 -2 -2 -1 -0 2 3 1 -1 -2 1 1 2 2 1 1 1 1 0 -1 -1 -0 0 0 0 1 1 2 2 2 2 2 2 2 1 1 1 1 1 1 0 0 -0 -0 0 0 1 1 1 1 1 1 1 1 1 1 1
-1 -1 -2 -2 -2 -2 -3 -3 -3 -3 -3 -3 -3 -2 -2 -1 -1 -1 -1 -1 -1 -1 -1 -1 -1 -2 -3 -3 -3 -3 -3 -3 -3 -2 0 2 1 -0 -2 0 1 2 3 3 3 3 3 2 1 -0 0 1 1 2 2 3 3 4 4 3 3 3 2 2 2 2 2 2 2 2 1 1 1 1 1 2 2 2 2 2 2 2 2 2 2 2
-2 -2 -2 -2 -2 -3 -3 -3 -3 -3 -3 -3 -2 -2 -2 -1 -1 -1 -1 -1 -1 -1 -1 -1 -2 -3 -4 -4 -5 -4 -3 -3 -4 -4 -3 -0 1 1 -1 0 1 2 3 4 5 6 6 4 2 0 -0 0 1 2 3 3 4 4 4 3 3 3 3 3 3 3 3 3 3 2 2 2 1 1 1 2 2 2 2 2 2 2 2 2 2 2
-2 -2 -3 -3 -3 -2 -2 -2 -2 -2 -2 -2 -2 -2 -2 -2 -2 -2 -2 -2 -1 -1 -0 -0 -0 -1 -3 -4 -4 -4 -4 -3 -3 -3 -3 -2 0 1 -1 0 1 2 3 4 5 6 7 5 2 -1 -1 -1 0 1 2 3 3 3 3 3 2 2 2 3 3 3 2 2 2 2 2 2 2 2 2 2 2 2 2 2 2 1 1 1 2 2
-2 -2 -2 -2 -2 -2 -1 -1 -0 -0 -0 -0 -1 -1 -1 -1 -2 -2 -2 -2 -1 -1 -0 0 1 0 -1 -2 -3 -4 -3 -1 -1 -1 -2 -1 -0 0 -1 -1 -0 2 4 4 5 6 7 5 1 -2 -2 -1 -0 1 2 2 3 2 2 2 2 1 1 2 2 1 1 1 1 2 2 2 2 2 2 2 2 2 2 2 1 1 1 1 1 2
-2 -2 -2 -1 -1 -1 -0 -0 0 1 1 0 -0 -1 -1 -1 -1 -1 -1 -1 -1 -1 -0 -0 0 0 -0 -1 -3 -3 -2 1 2 1 -0 -1 0 1 0 -1 -1 0 2 5 7 7 7 5 2 -1 -2 -1 0 1 2 2 2 2 1 1 0 0 0 0 0 0 0 1 1 1 2 2 2 2 2 2 2 2 2 1 1 1 1 1 2 3
-2 -1 -1 -1 -1 -1 -1 -1 -1 -0 -0 -0 -0 -0 -1 -1 -2 -2 -2 -2 -2 -2 -2 -1 1 2 2 1 -1 -2 -2 1 3 3 2 -0 -0 1 1 -1 -1 -0 1 5 8 8 8 5 2 -0 -0 0 1 2 2 2 1 1 0 -1 -1 -1 -1 -0 -0 -0 0 0 0 1 1 1 2 2 2 2 2 2 2 2 1 1 1 2 3 3
-1 -1 -1 -1 -0 -0 -1 -1 -1 -2 -2 -2 -2 -2 -2 -2 -2 -2 -3 -3 -3 -3 -3 -2 -0 2 4 3 2 -0 -2 -0 2 3 2 0 -0 -1 -1 -2 -1 -0 1 5 8 9 9 6 2 0 0 1 2 2 2 1 1 -0 -1 -1 -2 -2 -1 -1 -0 -0 0 0 0 0 0 1 1 1 1 1 2 2 2 2 2 1 1 2 3 4
-0 0 0 0 0 0 -0 -1 -1 -1 -2 -2 -3 -3 -3 -3 -3 -3 -3 -3 -3 -3 -3 -3 -2 -1 1 3 2 -0 -2 -1 0 2 2 0 -0 -1 -2 -2 -2 -1 1 4 8 11 12 8 3 0 0 1 2 2 3 2 1 -0 -1 -1 -2 -2 -1 -0 0 0 0 0 0 0 0 0 0 0 0 0 1 1 1 1 1 1 1 2 3 3
1 1 1 1 0 -0 -1 -1 -1 -2 -2 -3 -3 -3 -4 -4 -4 -4 -3 -3 -2 -2 -2 -1 -2 -1 -0 2 2 1 -1 -1 0 1 1 -0 -0 -0 -0 -1 -2 -3 -1 1 5 10 16 12 5 0 -0 1 2 2 3 3 2 1 0 -0 -0 -1 -0 0 1 1 1 1 0 0 0 0 0 -0 -0 -0 -0 -0 -0 -0 -0 0 1 1 2 2
-0 -1 -1 -2 -2 -2 -3 -3 -3 -3 -3 -3 -3 -3 -3 -3 -3 -3 -3 -2 -2 -2 -1 -1 -2 -2 -2 -1 -0 0 -0 -1 0 1 1 -1 -1 -1 -0 -1 -3 -4 -5 -5 -4 1 10 13 10 4 1 1 1 2 2 2 2 1 1 1 1 0 0 0 1 1 1 1 0 0 0 0 0 -0 -0 -0 -0 -1 -1 -1 -1 -1 -1 -0 0 1
-4 -4 -5 -5 -5 -5 -5 -5 -5 -5 -4 -4 -4 -3 -3 -2 -2 -2 -2 -2 -2 -2 -2 -2 -2 -3 -4 -5 -5 -5 -4 -3 -2 0 1 -0 -1 -2 -1 -1 -3 -5 -7 -8 -10 -10 -7 2 7 8 4 2 2 1 1 1 1 1 1 2 1 1 1 1 1 1 1 0 0 0 0 0 -0 -0 -0 -1 -1 -1 -1 -1 -2 -3 -3 -2 -1 0
-5 -5 -5 -6 -6 -6 -6 -5 -5 -5 -4 -4 -4 -3 -3 -3 -2 -2 -2 -2 -2 -2 -2 -2 -2 -2 -3 -4 -5 -6 -5 -4 -3 -1 0 -0 -1 -2 -2 -2 -2 -4 -6 -6 -7 -10 -13 -9 -2 4 4 2 1 1 0 -0 -0 -0 0 1 1 1 1 1 1 1 1 1 1 0 0 -0 -0 -1 -1 -1 -1 -1 -2 -2 -3 -3 -4 -3 -2 -1
-4 -4 -4 -5 -5 -5 -5 -4 -4 -4 -4 -4 -4 -3 -3 -3 -3 -3 -3 -2 -2 -2 -2 -3 -3 -3 -3 -3 -3 -3 -4 -3 -2 -1 -1 -1 -2 -3 -4 -4 -3 -3 -4 -4 -4 -5 -7 -8 -4 -0 3 2 1 1 1 0 -1 -1 -1 -0 0 1 2 2 2 2 1 1 1 1 0 -0 -0 -1 -1 -2 -2 -2 -2 -2 -2 -3 -3 -4 -3 -2
-3 -3 -3 -3 -3 -3 -4 -4 -4 -4 -3 -3 -3 -3 -3 -3 -4 -4 -4 -3 -3 -3 -2 -2 -3 -3 -3 -3 -2 -3 -3 -3 -3 -2 -2 -2 -3 -4 -5 -4 -4 -4 -3 -3 -2 -2 -3 -4 -3 -2 1 3 3 2 1 1 -0 -1 -1 -1 -0 1 2 2 2 2 2 1 1 0 -0 -1 -1 -2 -2 -2 -2 -2 -2 -2 -2 -2 -3 -4 -4 -3
-2 -2 -1 -1 -2 -2 -2 -2 -3 -3 -3 -3 -3 -3 -3 -3 -4 -4 -4 -4 -4 -4 -3 -2 -1 -1 -1 -1 -2 -2 -3 -4 -4 -3 -3 -3 -4 -4 -5 -5 -4 -4 -3 -3 -3 -2 -2 -2 -2 -2 -2 2 4 6 4 2 1 1 1 1 1 1 1 1 1 1 1 1 0 -0 -1 -2 -2 -2 -2 -2 -2 -2 -2 -2 -2 -2 -2 -3 -3 -3
-1 -0 -0 -0 -1 -1 -1 -1 -1 -1 -1 -2 -2 -2 -3 -3 -4 -4 -5 -5 -5 -4 -3 -1 0 2 2 2 1 -0 -2 -3 -4 -4 -4 -3 -3 -4 -5 -5 -4 -4 -4 -4 -4 -3 -2 -1 -0 -0 -2 -2 1 3 5 5 4 4 3 3 2 2 1 -0 -1 -1 -1 -1 -1 -1 -2 -2 -2 -2 -2 -3 -3 -3 -3 -3 -3 -2 -2 -2 -2 -3
-0 -0 -0 -0 -0 -0 -0 -0 -0 -0 -0 -1 -1 -2 -3 -3 -3 -4 -4 -4 -4 -4 -2 -1 0 1 1 1 0 -0 -1 -2 -3 -4 -4 -3 -3 -3 -3 -4 -4 -4 -4 -5 -5 -4 -3 -2 -1 0 0 -1 -2 -2 -0 2 3 3 2 1 -0 -1 -1 -1 -1 -2 -2 -2 -1 -1 -1 -1 -1 -2 -2 -3 -4 -4 -4 -3 -3 -3 -2 -2 -2 -2
-0 -0 -0 -0 -0 -0 -0 -0 -0 -1 -1 -1 -2 -2 -3 -3 -3 -3 -3 -3 -3 -2 -1 -1 -1 -1 -3 -3 -3 -3 -3 -3 -3 -4 -3 -3 -3 -3 -3 -3 -3 -3 -4 -4 -4 -4 -4 -4 -4 -3 -1 1 1 -0 -3 -2 -1 0 1 1 0 -0 -1 -1 -1 -1 -1 -1 -0 0 0 -0 -1 -1 -2 -3 -4 -3 -2 -2 -2 -2 -1 -1 -1 -1
-1 -2 -2 -2 -2 -2 -2 -2 -2 -2 -2 -2 -2 -2 -2 -2 -2 -1 -1 -1 -1 -1 -1 -1 -2 -3 -4 -5 -5 -4 -4 -3 -3 -3 -3 -3 -3 -3 -2 -2 -2 -2 -2 -3 -3 -4 -4 -4 -5 -5 -4 -1 0 1 -1 -3 -3 -2 -0 2 2 2 -0 -1 -1 -1 -1 -1 -0 0 1 0 -1 -2 -3 -3 -2 -1 -0 0 0 1 1 2 1 0
-2 -2 -3 -3 -3 -2 -3 -3 -3 -3 -3 -2 -2 -1 -0 -0 0 0 1 1 -0 -1 -3 -4 -4 -4 -3 -3 -3 -3 -3 -3 -3 -3 -3 -3 -3 -2 -2 -1 -1 -1 -1 -2 -3 -3 -3 -3 -3 -3 -2 -2 -2 -2 -3 -4 -5 -5 -5 -4 -4 -3 -3 -3 -2 -2 -1 -1 -0 -0 -0 -0 -1 -2 -3 -2 -1 0 1 2 2 2 3 4 3 2
-2 -2 -3 -3 -3 -3 -3 -3 -3 -3 -3 -2 -1 -0 1 1 2 2 2 2 2 0 -2 -5 -7 -7 -6 -4 -2 -1 -1 -2 -2 -2 -2 -2 -2 -2 -2 -1 -0 -0 -0 -1 -2 -3 -4 -4 -3 -3 -2 -1 -0 0 -1 -2 -3 -5 -7 -7 -5 -3 -2 -2 -2 -2 -1 -1 -0 -0 -0 -1 -1 -1 -1 -1 -0 0 1 2 2 2 3 3 3 3
-3 -3 -3 -3 -3 -3 -2 -2 -2 -2 -1 -1 -1 -0 0 1 1 2 3 4 3 2 1 -1 -3 -4 -5 -4 -2 -1 -0 -1 -1 -2 -2 -2 -2 -2 -2 -2 -2 -1 -1 -1 -1 -2 -4 -4 -4 -3 -3 -2 -1 -0 0 0 -1 -2 -4 -5 -5 -4 -0 1 1 -0 -2 -1 -0 -0 -0 -1 -1 -2 -2 -1 -1 -0 -0 -0 -0 -0 0 0 0 1
-3 -2 -2 -2 -2 -2 -2 -1 -1 -0 -0 -1 -1 -1 -0 0 1 1 2 2 2 2 3 4 4 4 4 2 1 -0 -1 -2 -3 -3 -4 -4 -4 -4 -3 -3 -3 -3 -2 -1 -0 -0 -1 -2 -3 -3 -3 -2 -1 -1 -1 -1 -1 -2 -2 -4 -7 -9 -9 -4 -1 0 -0 -0 -0 -0 -0 -1 -2 -2 -3 -2 -2 -1 -1 -2 -2 -2 -2 -2 -2 -2
-2 -2 -1 -1 -1 -1 -1 -1 -1 -1 -1 -1 -1 -1 -1 -0 0 0 0 0 1 2 4 6 8 9 9 7 5 2 -1 -4 -5 -6 -6 -6 -5 -5 -4 -3 -3 -3 -3 -3 -2 -0 0 -0 -1 -2 -2 -2 -2 -2 -2 -2 -2 -3 -2 -3 -4 -6 -7 -6 -4 -2 -0 0 0 -0 -0 -0 -0 -1 -2 -2 -1 -0 -0 -0 -1 -1 -1 -2 -2 -3
-1 -1 -1 -1 -1 -1 -1 -1 -1 -2 -2 -1 -1 -1 -1 -0 -0 -0 -0 -0 -0 1 3 5 7 8 9 8 6 4 1 -2 -4 -6 -7 -6 -6 -5 -4 -3 -3 -3 -3 -3 -3 -2 -2 -1 -0 0 0 -0 -1 -2 -3 -3 -3 -3 -2 -2 -2 -2 -2 -3 -3 -3 -2 -0 0 0 -0 -0 1 1 1 0 -0 -0 0 -0 -0 -1 -1 -1 -2 -2
-0 -1 -1 -1 -1 -1 -1 -1 -1 -1 -1 -1 -1 -0 -0 -0 -0 -0 -0 -0 0 1 2 2 2 2 2 2 3 3 3 2 0 -2 -4 -5 -5 -4 -4 -4 -4 -4 -4 -4 -3 -3 -3 -2 -1 -0 0 0 -0 -2 -3 -3 -3 -3 -2 -2 -2 -1 -1 -2 -3 -4 -4 -2 -0 1 1 1 1 1 1 0 0 -0 -0 -1 -1 -2 -1 -1 -1 -1
-1 -1 -1 -1 -1 -0 0 0 -0 -1 -1 -1 -1 -1 -0 -0 0 0 1 1 1 1 1 0 -1 -3 -4 -3 -2 -1 -0 1 1 1 -0 -1 -2 -3 -4 -5 -5 -5 -4 -4 -4 -4 -3 -3 -2 -2 -2 -2 -2 -2 -2 -3 -3 -3 -3 -2 -2 -2 -3 -3 -4 -4 -4 -3 -2 -0 1 1 1 0 0 0 0 -0 -0 -1 -1 -1 -1 -1 -1 -1
-2 -2 -1 -0 0 1 1 0 0 0 -0 -0 -1 -1 -1 -1 -0 0 0 1 1 1 1 -1 -4 -5 -5 -4 -4 -3 -3 -2 -1 -0 1 1 0 -1 -2 -4 -4 -5 -5 -4 -4 -4 -3 -3 -2 -2 -2 -3 -3 -3 -2 -3 -3 -3 -2 -2 -2 -2 -3 -3 -3 -2 -2 -2 -2 -1 -0 -0 -1 -2 -2 -1 -0 -0 -1 -1 -1 -1 -0 -1 -1 -1
-2 -1 -0 -0 0 0 0 0 0 0 1 0 -0 -1 -1 -1 -1 -1 -1 -0 0 0 -0 -4 -6 -7 -6 -4 -3 -2 -1 -1 -0 0 1 1 1 1 0 -0 -1 -2 -3 -3 -3 -3 -3 -2 -2 -2 -3 -3 -4 -3 -1 -2 -2 -2 -1 -2 -2 -2 -2 -2 -2 -1 -1 -0 0 0 1 0 -0 -1 -1 -1 -1 -1 -1 -1 -0 -0 -0 -0 -1 -1
-0 -0 0 -0 -0 -0 -0 -0 -0 0 1 0 0 0 0 -0 -0 -1 -1 -1 -0 -1 -2 -5 -7 -8 -7 -5 -3 -1 -0 0 1 1 1 1 1 1 1 2 2 2 2 1 1 1 -0 -1 -2 -3 -4 -4 -4 -3 -1 -1 -1 -1 -1 -2 -2 -2 -2 -2 -2 -2 -1 0 1 2 2 2 1 1 1 0 -0 -1 -1 -0 0 1 1 1 -0 -1
1 1 0 -0 -1 -1 -1 -1 -0 -0 -0 0 0 1 1 -0 -0 -1 -0 -0 -1 -2 -3 -6 -8 -9 -8 -6 -4 -2 -0 1 1 2 2 1 0 -0 -0 1 2 2 2 2 2 3 2 1 -1 -2 -3 -3 -3 -2 -2 -1 -1 -1 -2 -2 -1 -1 -0 -1 -1 -1 -1 -0 1 2 2 2 2 1 1 1 0 -0 -1 -0 -0 0 1 1 1 0
Height
2987 2988 2988 2988 2988 2988 2988 2988 2988 2988 2988 2987 2987 2987 2987 2987 2987 2988 2988 2988 2988 2987 2987 2987 2986 2986 2985 2984 2984 2983 2983 2982 2981 2980 2979 2978 2978 2977 2976 2975 2974 2973 2972 2971 2970 2969 2968 2967 2965 2964 2963 2962 2961 2959 2958 2957 2955 2954 2953 2951 2949 2948 2947 2945 2943 2942 2941 2940 2938 2938 2937 2936 2935 2934 2933 2932 2932 2931 2930 2929 2928 2928 2927 2927 2926 2925
2986 2986 2986 2986 2986 2986 2986 2986 2986 2985 2985 2985 2985 2985 2986 2986 2986 2986 2986 2985 2985 2985 2985 2984 2984 2983 2983 2982 2982 2981 2980 2979 2979 2978 2977 2976 2975 2974 2973 2973 2972 2970 2969 2968 2967 2966 2965 2963 2962 2961 2960 2958 2957 2956 2954 2953 2952 2950 2949 2947 2946 2944 2943 2941 2940 2939 2938 2937 2935 2934 2933 2933 2932 2931 2930 2929 2928 2928 2927 2926 2925 2925 2924 2923 2923 2922
2984 2984 2984 2984 2984 2984 2984 2984 2983 2983 2983 2983 2984 2984 2984 2984 2984 2984 2984 2983 2983 2983 2983 2983 2982 2981 2981 2980 2979 2979 2978 2977 2977 2976 2975 2974 2973 2972 2971 2970 2969 2968 2967 2966 2964 2963 2962 2960 2959 2958 2956 2955 2953 2952 2951 2949 2948 2947 2945 2943 2942 2941 2939 2938 2937 2936 2934 2933 2933 2932 2931 2930 2929 2928 2927 2926 2925 2924 2924 2923 2922 2922 2921 2920 2920 2919
2983 2983 2983 2983 2983 2983 2982 2982 2982 2982 2983 2983 2983 2983 2983 2983 2982 2982 2982 2982 2982 2981 2981 2980 2980 2979 2978 2978 2977 2977 2976 2975 2974 2973 2972 2971 2970 2969 2968 2968 2967 2965 2964 2963 2962 2960 2959 2957 2956 2954 2953 2952 2950 2949 2948 2946 2945 2943 2942 2940 2939 2937 2936 2935 2933 2933 2932 2931 2930 2928 2928 2927 2926 2925 2924 2923 2922 2922 2921 2920 2919 2918 2918 2917 2917 2916
2981 2981 2981 2981 2981 2981 2981 2981 2981 2981 2981 2981 2981 2981 2981 2981 2981 2981 2980 2980 2980 2979 2979 2978 2978 2978 2977 2976 2975 2974 2973 2973 2972 2971 2970 2969 2968 2967 2966 2965 2964 2963 2961 2960 2959 2957 2956 2954 2953 2951 2950 2948 2947 2946 2944 2943 2941 2940 2938 2937 2936 2934 2933 2932 2931 2930 2929 2928 2927 2926 2925 2924 2923 2922 2921 2920 2919 2918 2918 2917 2916 2915 2915 2914 2913 2913
2980 2980 2980 2980 2980 2980 2980 2980 2980 2980 2980 2980 2980 2980 2980 2979 2979 2979 2979 2979 2978 2978 2977 2977 2976 2976 2975 2974 2973 2972 2971 2970 2969 2968 2968 2967 2966 2964 2963 2962 2961 2960 2958 2957 2956 2954 2953 2951 2949 2948 2947 2945 2943 2942 2941 2939 2938 2937 2935 2934 2933 2931 2930 2929 2928 2927 2926 2925 2924 2923 2922 2921 2920 2919 2918 2917 2916 2915 2915 2914 2913 2912 2912 2911 2910 2910
2979 2979 2979 2979 2979 2979 2979 2979 2979 2979 2979 2979 2979 2979 2979 2978 2978 2978 2978 2977 2977 2976 2976 2975 2974 2973 2973 2972 2971 2970 2969 2968 2968 2967 2966 2964 2963 2962 2961 2959 2958 2957 2955 2954 2953 2951 2949 2948 2946 2945 2943 2942 2940 2939 2938 2936 2935 2933 2932 2931 2930 2928 2927 2926 2925 2924 2923 2922 2921 2920 2919 2918 2917 2916 2915 2914 2913 2912 2911 2911 2910 2909 2908 2908 2907 2906
2978 2978 2978 2978 2978 2978 2978 2978 2978 2978 2978 2978 2978 2978 2978 2977 2977 2977 2976 2976 2975 2975 2974 2973 2972 2971 2971 2970 2969 2968 2968 2967 2966 2965 2963 2962 2961 2959 2958 2956 2955 2953 2952 2951 2949 2948 2946 2945 2943 2942 2940 2939 2937 2936 2934 2933 2932 2930 2929 2928 2927 2926 2924 2923 2922 2921 2920 2919 2918 2917 2916 2915 2914 2913 2912 2911 2910 2909 2908 2907 2907 2906 2905 2904 2904 2903
2978 2978 2978 2977 2977 2977 2977 2977 2977 2977 2977 2977 2977 2977 2976 2976 2976 2975 2975 2974 2974 2973 2973 2972 2971 2970 2969 2968 2968 2967 2966 2965 2964 2963 2961 2960 2958 2956 2954 2953 2951 2950 2948 2947 2945 2944 2943 2941 2940 2939 2937 2936 2934 2933 2931 2930 2928 2928 2926 2925 2924 2923 2922 2921 2920 2919 2918 2917 2915 2914 2913 2912 2911 2910 2909 2908 2907 2906 2905 2904 2903 2903 2902 2901 2901 2900
2977 2977 2977 2977 2977 2977 2977 2977 2976 2976 2976 2976 2976 2976 2975 2975 2974 2974 2973 2973 2973 2972 2972 2971 2970 2969 2968 2967 2966 2965 2964 2963 2962 2960 2959 2957 2955 2953 2951 2949 2948 2946 2944 2943 2941 2940 2939 2938 2937 2935 2934 2932 2931 2929 2928 2927 2926 2925 2924 2923 2922 2920 2919 2918 2917 2916 2915 2914 2913 2912 2911 2909 2908 2907 2906 2905 2904 2903 2902 2901 2900 2899 2899 2898 2897 2897
2977 2977 2976 2976 2976 2976 2976 2976 2976 2976 2975 2975 2975 2974 2974 2974 2973 2973 2973 2972 2971 2971 2970 2969 2968 2968 2966 2965 2964 2963 2962 2960 2959 2958 2956 2954 2952 2950 2948 2946 2944 2942 2941 2939 2938 2936 2935 2934 2933 2932 2930 2929 2928 2926 2925 2924 2923 2922 2921 2920 2918 2918 2916 2915 2914 2913 2912 2911 2910 2909 2908 2907 2905 2904 2903 2902 2901 2900 2899 2898 2897 2896 2896 2895 2894 2893
2976 2976 2976 2976 2975 2975 2975 2975 2975 2975 2974 2974 2974 2973 2973 2973 2973 2972 2972 2971 2970 2970 2969 2968 2967 2966 2964 2963 2962 2961 2959 2958 2957 2956 2954 2952 2950 2948 2946 2943 2942 2940 2938 2937 2935 2933 2932 2930 2929 2928 2927 2925 2924 2923 2922 2921 2920 2919 2918 2916 2915 2914 2913 2912 2911 2909 2908 2908 2906 2905 2904 2903 2902 2901 2900 2899 2898 2897 2896 2895 2894 2893 2892 2892 2891 2890
2976 2975 2975 2975 2975 2975 2974 2974 2974 2973 2973 2973 2973 2973 2973 2972 2972 2971 2971 2970 2969 2968 2968 2967 2965 2964 2963 2961 2960 2958 2958 2956 2955 2954 2952 2950 2948 2946 2944 2942 2940 2938 2936 2934 2933 2931 2929 2927 2926 2924 2923 2922 2921 2920 2919 2918 2917 2915 2914 2913 2912 2910 2909 2908 2907 2906 2904 2903 2902 2901 2900 2899 2898 2897 2896 2895 2894 2893 2892 2891 2890 2889 2889 2888 2887 2886
2975 2975 2975 2975 2974 2974 2974 2973 2973 2973 2973 2973 2973 2972 2972 2971 2970 2970 2969 2968 2968 2967 2966 2965 2963 2962 2960 2959 2958 2956 2955 2954 2953 2952 2951 2949 2946 2944 2942 2940 2938 2936 2935 2933 2931 2929 2927 2925 2924 2922 2921 2919 2918 2917 2916 2915 2913 2912 2911 2910 2908 2907 2906 2905 2903 2902 2901 2900 2898 2897 2896 2895 2894 2893 2892 2891 2890 2889 2888 2887 2886 2885 2885 2884 2883 2882
2975 2975 2974 2974 2974 2974 2974 2973 2973 2973 2973 2973 2972 2971 2971 2970 2969 2969 2968 2967 2966 2965 2964 2963 2962 2960 2958 2957 2955 2954 2953 2952 2951 2950 2949 2948 2945 2942 2939 2938 2936 2934 2933 2931 2929 2927 2925 2924 2922 2920 2919 2918 2916 2915 2913 2912 2911 2910 2908 2907 2906 2904 2903 2902 2900 2899 2898 2896 2895 2894 2893 2891 2890 2889 2888 2887 2886 2884 2883 2883 2882 2881 2880 2879 2879 2878
2975 2974 2974 2974 2974 2974 2974 2973 2973 2973 2972 2972 2971 2971 2970 2969 2968 2968 2967 2966 2965 2964 2963 2961 2960 2959 2957 2955 2953 2952 2950 2950 2949 2948 2947 2946 2943 2939 2937 2936 2934 2933 2931 2929 2928 2926 2924 2922 2920 2919 2917 2916 2914 2913 2911 2910 2908 2907 2906 2904 2903 2901 2900 2899 2897 2896 2894 2893 2892 2890 2889 2888 2887 2885 2884 2883 2882 2880 2879 2878 2877 2876 2875 2875 2874 2873
2975 2975 2974 2974 2974 2974 2973 2973 2973 2972 2972 2971 2970 2970 2969 2968 2967 2966 2965 2964 2963 2962 2960 2959 2958 2956 2955 2953 2951 2949 2948 2947 2947 2946 2945 2943 2940 2938 2935 2934 2933 2932 2930 2928 2926 2924 2923 2921 2919 2917 2915 2914 2912 2910 2908 2907 2905 2904 2903 2901 2900 2898 2897 2896 2894 2893 2891 2890 2888 2887 2886 2884 2883 2882 2880 2879 2878 2876 2875 2874 2873 2872 2871 2870 2869 2868
2975 2975 2975 2974 2974 2973 2973 2973 2972 2972 2971 2970 2969 2968 2968 2967 2966 2964 2963 2962 2961 2959 2958 2956 2955 2953 2952 2950 2948 2946 2945 2944 2944 2943 2943 2941 2938 2936 2933 2932 2931 2930 2928 2927 2925 2923 2921 2919 2917 2915 2913 2911 2909 2908 2906 2904 2903 2901 2899 2898 2897 2895 2894 2893 2891 2889 2888 2887 2885 2884 2882 2881 2879 2878 2876 2875 2873 2872 2871 2869 2868 2867 2866 2865 2864 2863
2975 2975 2975 2974 2974 2973 2973 2972 2972 2971 2970 2969 2968 2968 2966 2965 2964 2963 2961 2960 2959 2958 2956 2954 2953 2951 2949 2948 2945 2944 2943 2942 2942 2941 2940 2939 2937 2934 2932 2931 2930 2928 2927 2925 2923 2921 2919 2917 2914 2913 2910 2908 2907 2905 2903 2901 2900 2898 2897 2895 2894 2892 2891 2889 2888 2886 2885 2883 2882 2880 2878 2876 2875 2873 2872 2870 2869 2868 2867 2865 2864 2863 2862 2861 2860 2859
2976 2975 2975 2974 2974 2973 2973 2972 2971 2970 2969 2968 2967 2966 2965 2964 2963 2961 2960 2958 2957 2956 2954 2953 2951 2949 2947 2945 2944 2942 2941 2940 2940 2939 2938 2937 2935 2933 2931 2930 2928 2927 2925 2923 2921 2919 2917 2915 2912 2910 2908 2906 2904 2902 2900 2899 2897 2896 2894 2893 2891 2889 2888 2886 2884 2883 2881 2879 2877 2876 2874 2872 2870 2869 2868 2866 2865 2863 2863 2861 2860 2859 2858 2857 2856 2856
2976 2975 2974 2974 2973 2973 2972 2971 2970 2969 2968 2967 2966 2965 2964 2963 2961 2960 2958 2957 2956 2954 2953 2951 2949 2947 2945 2943 2942 2941 2940 2939 2938 2937 2937 2935 2933 2931 2929 2928 2927 2925 2924 2922 2920 2918 2915 2913 2910 2908 2906 2903 2902 2900 2898 2897 2895 2893 2892 2890 2888 2886 2884 2882 2880 2878 2877 2875 2873 2871 2869 2868 2866 2864 2863 2862 2861 2860 2858 2858 2857 2856 2854 2853 2853 2852
2975 2975 2974 2973 2973 2972 2971 2970 2969 2968 2967 2966 2965 2963 2962 2961 2960 2958 2957 2956 2954 2953 2951 2950 2948 2946 2944 2942 2940 2939 2938 2937 2936 2935 2934 2933 2932 2930 2928 2926 2925 2923 2922 2920 2918 2916 2913 2911 2908 2905 2903 2901 2899 2897 2895 2894 2892 2890 2888 2886 2884 2882 2880 2878 2876 2874 2873 2871 2869 2867 2865 2863 2862 2861 2859 2858 2857 2856 2855 2854 2853 2852 2851 2850 2849 2848
2975 2975 2974 2973 2972 2971 2970 2969 2968 2967 2966 2965 2963 2962 2961 2959 2958 2957 2955 2954 2953 2951 2950 2948 2947 2945 2943 2941 2939 2938 2937 2936 2935 2933 2933 2931 2930 2928 2926 2924 2922 2920 2919 2917 2915 2913 2911 2908 2906 2903 2900 2898 2896 2894 2892 2890 2888 2886 2884 2882 2880 2878 2876 2874 2872 2870 2868 2867 2865 2863 2862 2860 2858 2857 2856 2855 2854 2853 2852 2850 2849 2848 2847 2846 2845 2844
2975 2974 2974 2973 2972 2971 2970 2969 2968 2967 2966 2964 2963 2961 2960 2958 2957 2955 2954 2953 2951 2950 2949 2948 2946 2944 2942 2940 2938 2937 2936 2935 2933 2932 2930 2929 2927 2925 2923 2921 2919 2918 2916 2914 2913 2911 2908 2906 2903 2900 2898 2895 2893 2891 2889 2887 2884 2882 2880 2878 2876 2874 2872 2870 2868 2866 2864 2863 2861 2859 2858 2857 2855 2854 2853 2852 2850 2849 2848 2847 2846 2844 2843 2843 2842 2841
2975 2974 2973 2972 2971 2970 2969 2968 2967 2966 2965 2963 2962 2960 2959 2957 2956 2954 2953 2952 2950 2949 2948 2947 2945 2944 2942 2940 2938 2936 2934 2933 2932 2930 2928 2927 2925 2923 2920 2918 2916 2914 2913 2912 2910 2908 2905 2903 2900 2897 2894 2892 2890 2888 2885 2883 2881 2878 2876 2874 2872 2870 2868 2866 2864 2862 2861 2859 2858 2856 2855 2853 2852 2851 2849 2848 2847 2846 2844 2843 2842 2841 2840 2839 2838 2838
2975 2974 2973 2972 2971 2970 2968 2967 2966 2964 2963 2962 2960 2959 2958 2956 2955 2953 2952 2950 2949 2948 2947 2946 2945 2943 2942 2939 2937 2935 2933 2931 2930 2928 2926 2924 2922 2920 2918 2915 2913 2911 2909 2908 2907 2905 2902 2899 2896 2894 2891 2888 2886 2884 2882 2879 2877 2874 2872 2870 2868 2866 2864 2862 2860 2858 2857 2855 2854 2852 2851 2850 2848 2847 2846 2844 2843 2842 2841 2840 2839 2838 2837 2836 2836 2835
2974 2973 2973 2971 2970 2969 2968 2966 2965 2963 2962 2960 2959 2958 2956 2955 2954 2952 2951 2949 2948 2947 2946 2945 2943 2942 2941 2939 2936 2933 2931 2929 2928 2926 2923 2921 2919 2917 2914 2911 2909 2907 2905 2904 2903 2901 2898 2895 2893 2890 2888 2885 2883 2880 2878 2875 2873 2870 2868 2866 2863 2862 2860 2858 2857 2855 2853 2852 2850 2849 2847 2846 2844 2843 2842 2841 2840 2838 2838 2837 2836 2835 2834 2833 2833 2833
2974 2973 2972 2971 2970 2968 2967 2965 2964 2962 2961 2959 2958 2957 2955 2954 2953 2952 2950 2949 2947 2946 2944 2943 2942 2940 2938 2937 2934 2932 2929 2927 2925 2923 2921 2918 2916 2913 2911 2908 2905 2903 2902 2900 2898 2897 2895 2892 2888 2886 2883 2881 2878 2876 2873 2871 2869 2866 2864 2862 2860 2858 2856 2854 2853 2851 2850 2848 2847 2845 2844 2842 2841 2840 2838 2837 2836 2835 2834 2833 2833 2832 2831 2830 2830 2830
2974 2973 2972 2970 2968 2967 2965 2964 2963 2961 2960 2958 2957 2956 2954 2953 2952 2950 2949 2948 2946 2945 2943 2941 2939 2938 2936 2934 2932 2930 2927 2924 2922 2920 2918 2916 2913 2911 2908 2905 2902 2900 2898 2896 2894 2893 2892 2889 2885 2882 2879 2877 2874 2872 2870 2867 2865 2863 2860 2858 2856 2854 2853 2851 2849 2848 2847 2845 2843 2842 2841 2839 2838 2837 2835 2834 2833 2832 2831 2831 2830 2829 2828 2828 2828 2827
2973 2971 2970 2968 2967 2965 2964 2962 2961 2960 2958 2957 2956 2955 2953 2952 2951 2949 2948 2946 2945 2943 2942 2940 2938 2936 2933 2932 2930 2927 2925 2922 2920 2918 2915 2913 2910 2908 2905 2902 2899 2897 2894 2892 2890 2888 2888 2886 2883 2879 2876 2873 2871 2868 2866 2863 2861 2859 2857 2855 2853 2851 2850 2848 2847 2845 2844 2843 2841 2840 2838 2837 2836 2834 2833 2832 2831 2830 2829 2828 2828 2827 2826 2825 2825 2825
2971 2970 2968 2967 2965 2964 2962 2961 2960 2958 2957 2956 2955 2954 2952 2951 2950 2948 2947 2945 2943 2942 2940 2938 2936 2933 2931 2928 2926 2924 2922 2919 2917 2915 2912 2910 2907 2905 2902 2899 2896 2893 2891 2888 2886 2883 2882 2881 2880 2877 2873 2870 2868 2865 2863 2860 2858 2856 2854 2853 2851 2849 2848 2846 2844 2843 2842 2840 2839 2838 2836 2835 2834 2833 2831 2830 2829 2828 2828 2827 2826 2825 2824 2823 2823 2823
2971 2969 2968 2966 2964 2963 2962 2960 2959 2958 2957 2955 2954 2953 2951 2950 2948 2947 2945 2944 2942 2940 2938 2936 2934 2932 2929 2927 2924 2921 2919 2916 2914 2912 2910 2907 2904 2902 2899 2897 2894 2891 2888 2886 2883 2880 2878 2876 2875 2873 2871 2868 2865 2863 2861 2858 2856 2853 2852 2850 2849 2847 2846 2844 2843 2841 2840 2839 2837 2836 2835 2833 2832 2831 2830 2829 2828 2827 2826 2825 2824 2823 2822 2822 2821 2821
2971 2969 2968 2966 2964 2963 2962 2960 2959 2958 2956 2955 2954 2952 2951 2949 2948 2946 2944 2942 2940 2938 2936 2934 2932 2930 2928 2925 2923 2920 2917 2914 2912 2909 2907 2905 2902 2899 2896 2894 2891 2889 2887 2884 2881 2878 2876 2873 2871 2870 2868 2866 2864 2861 2859 2857 2854 2852 2850 2849 2848 2846 2845 2843 2842 2840 2839 2838 2836 2835 2833 2833 2831 2830 2829 2828 2827 2826 2825 2824 2823 2823 2822 2821 2820 2819
2971 2969 2968 2967 2965 2963 2962 2961 2959 2958 2957 2955 2954 2952 2950 2948 2947 2945 2943 2941 2939 2937 2935 2933 2931 2928 2926 2924 2921 2918 2915 2912 2909 2907 2905 2903 2900 2897 2894 2891 2889 2887 2884 2882 2879 2877 2874 2872 2870 2868 2867 2865 2863 2861 2858 2856 2853 2851 2849 2848 2847 2846 2844 2843 2841 2840 2838 2837 2835 2834 2833 2832 2831 2829 2828 2827 2826 2825 2824 2823 2823 2822 2821 2820 2819 2818
2971 2970 2968 2967 2966 2964 2963 2961 2960 2958 2957 2955 2954 2952 2950 2948 2946 2944 2942 2939 2937 2935 2933 2931 2929 2927 2925 2922 2920 2917 2914 2911 2908 2905 2903 2901 2898 2895 2892 2889 2887 2884 2882 2880 2878 2875 2873 2871 2869 2867 2866 2865 2863 2861 2858 2856 2853 2852 2850 2848 2847 2845 2844 2842 2841 2839 2838 2837 2835 2833 2832 2831 2830 2829 2828 2827 2826 2825 2824 2823 2822 2821 2820 2819 2819 2818
2971 2970 2969 2967 2966 2964 2963 2962 2960 2958 2957 2955 2953 2951 2949 2947 2945 2943 2941 2938 2936 2934 2932 2929 2928 2925 2923 2921 2918 2915 2913 2909 2907 2904 2901 2899 2897 2894 2891 2888 2884 2882 2880 2878 2876 2874 2872 2870 2868 2867 2865 2863 2862 2861 2858 2856 2854 2852 2851 2849 2847 2845 2843 2842 2840 2839 2838 2836 2835 2833 2832 2831 2829 2828 2827 2826 2825 2824 2823 2822 2821 2820 2819 2819 2818 2818
2971 2970 2969 2967 2966 2964 2963 2962 2960 2958 2957 2955 2953 2951 2949 2947 2944 2942 2940 2937 2935 2933 2930 2928 2926 2923 2921 2918 2916 2913 2911 2908 2905 2902 2900 2897 2895 2892 2889 2886 2883 2880 2878 2876 2874 2873 2871 2869 2868 2866 2864 2863 2861 2860 2858 2856 2854 2853 2850 2848 2847 2845 2843 2842 2840 2838 2837 2836 2834 2833 2832 2830 2829 2828 2827 2825 2824 2823 2823 2822 2821 2820 2819 2818 2818 2817
2971 2970 2968 2967 2965 2964 2963 2961 2959 2958 2956 2954 2952 2950 2948 2946 2944 2942 2939 2937 2934 2932 2929 2927 2924 2922 2919 2917 2914 2912 2909 2906 2903 2901 2898 2895 2893 2891 2888 2885 2882 2879 2878 2876 2874 2872 2870 2868 2867 2865 2864 2863 2861 2859 2858 2856 2854 2852 2850 2848 2847 2845 2843 2841 2840 2838 2837 2835 2834 2833 2832 2830 2829 2828 2827 2825 2824 2823 2822 2821 2820 2819 2818 2818 2818 2817
2971 2969 2968 2966 2965 2963 2962 2960 2958 2957 2955 2953 2952 2950 2948 2945 2943 2941 2939 2936 2933 2931 2928 2926 2923 2921 2918 2916 2913 2910 2908 2905 2902 2899 2897 2894 2892 2890 2888 2885 2883 2880 2878 2875 2873 2872 2869 2868 2866 2865 2863 2862 2860 2859 2857 2855 2853 2852 2850 2848 2846 2844 2843 2841 2839 2838 2836 2835 2834 2833 2832 2830 2829 2828 2827 2825 2824 2823 2822 2821 2820 2819 2818 2818 2817 2817
2970 2969 2967 2966 2964 2963 2961 2959 2958 2956 2955 2953 2951 2949 2948 2945 2943 2941 2938 2936 2933 2931 2928 2925 2922 2920 2917 2915 2912 2910 2907 2904 2901 2898 2896 2893 2892 2890 2888 2886 2883 2881 2878 2876 2873 2872 2870 2868 2866 2864 2863 2862 2860 2858 2856 2854 2852 2850 2849 2847 2845 2843 2841 2840 2839 2838 2836 2835 2834 2833 2831 2830 2829 2828 2827 2825 2824 2823 2822 2821 2820 2819 2818 2818 2817 2816
2970 2968 2967 2965 2964 2963 2961 2959 2958 2956 2954 2953 2951 2949 2948 2945 2943 2941 2939 2937 2934 2931 2928 2925 2922 2919 2916 2914 2912 2909 2906 2903 2901 2898 2896 2894 2892 2890 2888 2886 2884 2882 2879 2877 2874 2872 2870 2868 2866 2864 2863 2861 2860 2858 2856 2854 2852 2849 2848 2846 2844 2843 2841 2840 2838 2837 2836 2835 2833 2832 2831 2830 2828 2827 2826 2825 2824 2823 2822 2821 2820 2819 2818 2817 2817 2816
2970 2968 2967 2965 2964 2963 2961 2959 2958 2956 2954 2953 2951 2949 2947 2945 2943 2941 2939 2937 2934 2932 2929 2926 2923 2920 2917 2914 2912 2909 2906 2904 2901 2899 2897 2895 2893 2891 2889 2887 2884 2882 2880 2877 2875 2872 2870 2868 2866 2864 2863 2861 2859 2858 2856 2853 2851 2849 2847 2845 2843 2842 2841 2840 2838 2837 2836 2834 2833 2832 2831 2829 2828 2827 2826 2824 2823 2823 2822 2821 2820 2818 2818 2817 2816 2815
2970 2969 2967 2966 2964 2963 2961 2960 2958 2957 2955 2953 2951 2948 2947 2945 2943 2941 2939 2937 2934 2932 2930 2927 2925 2922 2919 2916 2913 2910 2907 2904 2902 2899 2897 2895 2893 2891 2889 2887 2885 2883 2880 2878 2876 2873 2871 2869 2867 2865 2863 2861 2859 2857 2855 2853 2851 2849 2847 2845 2843 2841 2840 2839 2838 2837 2836 2834 2833 2832 2831 2829 2828 2827 2825 2824 2823 2822 2821 2820 2819 2818 2817 2816 2815 2814
2971 2969 2968 2967 2965 2963 2962 2960 2958 2957 2954 2952 2950 2948 2946 2944 2942 2940 2938 2936 2934 2932 2930 2928 2926 2923 2920 2917 2914 2911 2908 2905 2903 2900 2898 2896 2893 2892 2889 2887 2885 2883 2881 2879 2877 2874 2872 2870 2868 2866 2864 2862 2859 2857 2855 2853 2851 2849 2848 2846 2844 2843 2841 2839 2838 2837 2836 2835 2833 2832 2831 2830 2828 2827 2826 2824 2823 2822 2821 2820 2819 2818 2817 2816 2815 2814
2972 2970 2969 2968 2966 2964 2962 2960 2958 2956 2954 2952 2950 2948 2946 2944 2942 2940 2938 2936 2934 2932 2930 2928 2926 2924 2922 2918 2916 2913 2910 2907 2904 2901 2898 2896 2894 2892 2890 2888 2886 2883 2882 2879 2878 2875 2873 2872 2869 2867 2865 2863 2860 2858 2855 2853 2852 2850 2848 2847 2845 2844 2843 2841 2839 2838 2837 2835 2834 2833 2832 2830 2829 2828 2827 2825 2824 2823 2821 2820 2819 2818 2817 2816 2815 2814
2973 2972 2970 2968 2966 2964 2962 2960 2958 2956 2953 2952 2949 2947 2945 2943 2942 2940 2938 2936 2934 2932 2930 2928 2926 2924 2922 2919 2917 2914 2912 2909 2906 2903 2900 2898 2895 2893 2890 2888 2886 2884 2882 2880 2878 2876 2874 2873 2870 2868 2866 2863 2861 2859 2856 2854 2853 2851 2849 2848 2846 2845 2843 2842 2840 2839 2837 2836 2835 2833 2832 2831 2830 2828 2827 2826 2824 2823 2822 2820 2819 2818 2817 2816 2815 2814
2974 2972 2970 2968 2967 2964 2962 2960 2958 2956 2953 2951 2949 2947 2945 2943 2942 2940 2938 2936 2934 2932 2930 2928 2927 2925 2922 2920 2918 2915 2913 2910 2908 2905 2902 2899 2897 2894 2892 2889 2887 2885 2883 2881 2879 2877 2875 2873 2871 2869 2867 2864 2862 2860 2858 2856 2854 2852 2850 2849 2847 2846 2844 2843 2841 2839 2838 2837 2835 2834 2833 2832 2830 2828 2827 2826 2825 2823 2822 2821 2819 2818 2817 2816 2815 2814
2974 2972 2970 2968 2967 2964 2962 2960 2958 2955 2953 2951 2949 2947 2945 2943 2942 2940 2938 2936 2934 2933 2931 2929 2927 2925 2923 2920 2918 2915 2913 2911 2908 2906 2903 2901 2898 2896 2893 2891 2888 2886 2884 2882 2880 2878 2876 2874 2872 2870 2868 2865 2863 2861 2859 2857 2855 2853 2852 2850 2848 2847 2845 2843 2842 2840 2839 2837 2836 2834 2833 2831 2830 2829 2828 2826 2825 2824 2822 2821 2820 2819 2818 2817 2815 2814
2974 2973 2970 2968 2966 2964 2962 2960 2958 2955 2953 2951 2949 2947 2945 2944 2942 2940 2938 2936 2934 2933 2931 2930 2928 2926 2924 2921 2918 2916 2914 2912 2909 2907 2905 2903 2900 2898 2895 2893 2891 2888 2886 2884 2882 2879 2877 2875 2873 2871 2868 2866 2864 2863 2861 2859 2857 2855 2853 2852 2850 2848 2846 2844 2842 2841 2839 2838 2836 2834 2833 2831 2830 2829 2828 2826 2825 2823 2822 2821 2820 2819 2818 2817 2816 2815
2975 2973 2971 2968 2966 2964 2962 2959 2958 2955 2953 2952 2950 2948 2946 2944 2942 2940 2938 2936 2935 2933 2932 2930 2929 2927 2924 2922 2919 2917 2914 2912 2910 2908 2906 2903 2901 2899 2897 2895 2893 2891 2889 2886 2884 2882 2879 2877 2874 2872 2870 2868 2866 2864 2863 2861 2859 2857 2855 2853 2851 2849 2847 2845 2843 2841 2840 2838 2837 2835 2833 2832 2831 2829 2828 2826 2825 2824 2822 2821 2820 2819 2818 2817 2816 2815
2975 2973 2971 2968 2966 2964 2962 2960 2958 2956 2954 2952 2950 2948 2947 2945 2943 2941 2939 2937 2935 2933 2932 2931 2929 2928 2925 2923 2920 2917 2915 2913 2911 2908 2906 2904 2902 2900 2898 2896 2894 2893 2890 2888 2886 2884 2881 2878 2876 2873 2872 2870 2868 2866 2865 2863 2861 2859 2857 2855 2853 2851 2849 2847 2845 2843 2841 2839 2838 2836 2834 2833 2831 2829 2828 2827 2825 2824 2823 2821 2820 2819 2818 2817 2816 2815